This demonstration page uses our WeatherBlox Daily Observations layout. Learn more.

Left ArrowRight Arrow

39.51506, -84.39828

Hourly Observations for June 14, 2020

Temp ( °F °C ) Dew Point ( °F °C ) Humidity (%) Winds ( mph kmh ) Pressure ( in mb ) Visibility ( mi km ) Precip ( " mm )
12:15 am 00:15 Cloudy N/A N/A N/A NE 7 11 N/A 10 16.0934 0 0
12:35 am 00:35 Partly Cloudy N/A N/A N/A NE 7 11 N/A 10 16.0934 0 0
12:55 am 00:55 Clear 57 14 46 8 67 67 NE 7 11 30.24 1024 10 16.0934 0 0
1:15 am 01:15 Clear 57 13.9 46 7.8 67 67 NE 7 11 30.24 1024 10 16.0934 0 0
1:35 am 01:35 Clear 57 14 45 7 63 63 NNE 6 9 30.24 1024 10 16.0934 0 0
1:55 am 01:55 Partly Cloudy 56 13.5 45 7 65 65 NNE 7 11 30.24 1024 10 16.0934 0 0
2:15 am 02:15 Cloudy 57 13.7 44 6.8 63 63 NNE 7 11 30.24 1024 10 16.0934 0 0
2:35 am 02:35 Cloudy 57 13.9 44 6.6 62 62 NNE 7 11 30.25 1024 10 16.0934 0 0
2:55 am 02:55 Mostly Cloudy 57 13.8 44 6.5 62 62 NNE 8 13 30.25 1024 10 16.0934 0 0
3:15 am 03:15 Mostly Cloudy 57 13.8 43 6.3 61 61 NE 8 13 30.25 1024 10 16.0934 0 0
3:35 am 03:35 Mostly Cloudy 57 13.9 43 6.3 60 60 NE 8 13 30.24 1024 10 16.0934 0 0
3:55 am 03:55 Cloudy 57 13.7 43 6.3 61 61 NE 8 13 30.24 1024 10 16.0934 0 0
4:15 am 04:15 Mostly Cloudy 56 13.5 43 6.2 62 62 NE 7 11 30.24 1024 10 16.0934 0 0
4:35 am 04:35 Mostly Cloudy 56 13.5 43 6.3 62 62 NNE 7 11 30.25 1024 10 16.0934 0 0
4:55 am 04:55 Mostly Cloudy 56 13.3 43 6.1 62 62 NNE 7 11 30.25 1024 10 16.0934 0 0
5:15 am 05:15 Partly Cloudy 56 13.3 43 5.9 61 61 NNE 6 9 30.25 1024 10 16.0934 0 0
5:35 am 05:35 Mostly Cloudy 55 13 43 6 63 63 NNE 6 9 30.25 1024 10 16.0934 0 0
5:55 am 05:55 Clear 55 13 43 6 63 63 NNE 7 11 30.25 1024 10 16.0934 0 0
6:15 am 06:15 Partly Cloudy 54 12.4 43 6.2 66 66 NNE 6 9 30.26 1025 10 16.0934 0 0
6:35 am 06:35 Partly Cloudy 54 12.2 43 5.9 66 66 NNE 6 9 30.27 1025 10 16.0934 0 0
6:55 am 06:55 Cloudy 54 12.2 43 6.3 67 67 N 5 7 30.28 1026 7 11.26538 0 0
7:15 am 07:15 Cloudy 55 12.7 43 6.1 64 64 NNE 6 9 30.28 1025 10 16.0934 0 0
7:35 am 07:35 Cloudy 55 12.9 42 5.4 61 61 NNE 7 11 30.29 1026 10 16.0934 0 0
7:55 am 07:55 Mostly Cloudy 56 13.2 42 5.5 60 60 NNE 9 15 30.28 1025 10 16.0934 0 0
8:15 am 08:15 Cloudy 56 13.4 42 5.8 60 60 NNE 9 15 30.29 1026 10 16.0934 0 0
8:35 am 08:35 Cloudy 57 14 43 6 59 59 NNE 9 15 30.3 1026 10 16.0934 0 0
8:55 am 08:55 Cloudy 58 14.4 44 6.6 60 60 NE 10 17 30.3 1026 10 16.0934 0 0
9:15 am 09:15 Partly Cloudy 59 15 43 6 55 55 NNE 10 17 30.3 1026 10 16.0934 0 0
9:35 am 09:35 Sunny N/A N/A N/A NNE 9 15 N/A 10 16.0934 0 0
9:55 am 09:55 Sunny N/A N/A N/A ENE 12 19 N/A 10 16.0934 0 0
10:15 am 10:15 Partly Cloudy 61 16 46 8 59 59 ENE 5 7 30.29 1026 10 16.0934 0 0
10:35 am 10:35 Mostly Cloudy N/A N/A N/A ENE 5 7 N/A 10 16.0934 0 0
10:55 am 10:55 Cloudy 63 17 46 8 56 56 NE 3 6 30.28 1025 10 16.0934 0 0
11:15 am 11:15 Mostly Cloudy N/A N/A N/A ENE 6 9 N/A 10 16.0934 0 0
11:35 am 11:35 Partly Cloudy N/A N/A N/A NE 9 15 N/A 10 16.0934 0 0
11:55 am 11:55 Sunny N/A N/A N/A NNE 12 19 N/A 10 16.0934 0 0
12:15 pm 12:15 Sunny N/A N/A N/A NNE 9 15 N/A 10 16.0934 0 0
12:35 pm 12:35 Sunny N/A N/A N/A NNE 12 19 N/A 10 16.0934 0 0
12:55 pm 12:55 Sunny N/A N/A N/A NE 10 17 N/A 10 16.0934 0 0
1:15 pm 13:15 Sunny N/A N/A N/A NE 8 13 N/A 10 16.0934 0 0
1:35 pm 13:35 Sunny N/A N/A N/A ENE 10 17 N/A 10 16.0934 0 0
1:55 pm 13:55 Hazy N/A N/A N/A NE 13 20 N/A 7 11.26538 0 0
2:15 pm 14:15 Sunny N/A N/A N/A NE 15 24 N/A 10 16.0934 0 0
2:35 pm 14:35 Sunny N/A N/A N/A NE 8 13 N/A 10 16.0934 0 0
2:55 pm 14:55 Partly Cloudy N/A N/A N/A E 6 9 N/A 10 16.0934 0 0
3:15 pm 15:15 Sunny N/A N/A N/A ENE 10 17 N/A 10 16.0934 0 0
3:35 pm 15:35 Mostly Cloudy N/A N/A N/A SE 9 15 N/A 10 16.0934 0 0
3:55 pm 15:55 Mostly Cloudy N/A N/A N/A E 6 9 N/A 10 16.0934 0 0
4:15 pm 16:15 Partly Cloudy N/A N/A N/A ENE 9 15 N/A 10 16.0934 0 0
4:35 pm 16:35 Mostly Cloudy N/A N/A N/A ENE 8 13 N/A 10 16.0934 0 0
4:55 pm 16:55 Partly Cloudy N/A N/A N/A ENE 12 19 N/A 10 16.0934 0 0
5:15 pm 17:15 Sunny N/A N/A N/A NNE 9 15 N/A 10 16.0934 0 0
5:35 pm 17:35 Sunny N/A N/A N/A ENE 10 17 N/A 10 16.0934 0 0
5:55 pm 17:55 Partly Cloudy N/A N/A N/A N 7 11 N/A 10 16.0934 0 0
6:15 pm 18:15 Mostly Cloudy N/A N/A N/A NNE 6 9 N/A 10 16.0934 0 0
6:35 pm 18:35 Partly Cloudy N/A N/A N/A NE 7 11 N/A 10 16.0934 0 0
6:55 pm 18:55 Sunny N/A N/A N/A N 9 15 N/A 10 16.0934 0 0
7:15 pm 19:15 Mostly Cloudy N/A N/A N/A NE 13 20 N/A 10 16.0934 0 0
7:35 pm 19:35 Mostly Cloudy N/A N/A N/A NE 7 11 N/A 10 16.0934 0 0
7:55 pm 19:55 Partly Cloudy N/A N/A N/A ENE 8 13 N/A 10 16.0934 0 0
8:15 pm 20:15 Sunny N/A N/A N/A ENE 7 11 N/A 10 16.0934 0 0
8:35 pm 20:35 Sunny N/A N/A N/A NE 3 6 N/A 10 16.0934 0 0
8:55 pm 20:55 Sunny N/A N/A N/A N 3 6 N/A 10 16.0934 0 0
9:15 pm 21:15 Clear N/A N/A N/A N 3 6 N/A 10 16.0934 0 0
9:35 pm 21:35 Clear N/A N/A N/A NNE 8 13 N/A 10 16.0934 0 0
9:55 pm 21:55 Clear N/A N/A N/A NE 9 15 N/A 10 16.0934 0 0
10:15 pm 22:15 Clear N/A N/A N/A NE 8 13 N/A 10 16.0934 0 0
10:35 pm 22:35 Clear N/A N/A N/A NNE 7 11 N/A 10 16.0934 0 0
10:55 pm 22:55 Clear N/A N/A N/A NNE 6 9 N/A 10 16.0934 0 0
11:15 pm 23:15 Clear N/A N/A N/A NNE 8 13 N/A 10 16.0934 0 0
11:35 pm 23:35 Clear N/A N/A N/A NE 8 13 N/A 10 16.0934 0 0
11:55 pm 23:55 Clear 60 15.4 46 7.8 61 61 NNE 7 11 30.28 1025 10 16.0934 0 0

Powered by AerisWeather